[[{"header":{"parameterUnit":"m.s-1","parameterCategory":1,"la1":30.2991,"la2":30.254,"lo1":-89.0895,"lo2":-89.0444,"dy":0.0017,"dx":0.0017,"nx":28,"ny":28,"refTime":"2023-08-14T09:00:00:Z","depth":0,"parameterNumber":2,"parameterNumberName":"U-component_of_WINDS"},"data":[0,0,0,0,0,0,0,0,0,0,0,0,0,0,0,0,0,0,0,0,0,0,0,0,0,0,0,0,0,0,0,0,0,0,0,0,0,0,0,0,0,0,0,0,0,0,0,0,0,0,0,0,0,0,0,0,0,0,2.6605,2.6606,0,2.6698,2.67,2.6701,2.6682,2.668,2.6678,2.6677,2.6779,2.6783,2.6787,0,0,0,0,0,0,0,0,0,0,0,0,0,2.6414,2.6418,2.6604,2.6606,2.6607,2.6698,2.67,2.6701,2.6682,2.668,2.6678,2.6676,2.6777,2.6782,2.6788,0,0,0,0,0,0,0,0,0,0,0,0,0,2.6501,2.6419,2.6604,2.6608,2.661,2.6698,2.67,2.6701,2.6683,2.668,2.6677,2.6675,2.6776,2.6782,2.6788,2.688,0,0,2.6808,2.6811,0,0,0,0,0,0,0,0,2.6496,2.6508,2.6607,2.6608,2.661,2.6676,2.667,2.6762,2.6683,2.6655,2.6677,2.6674,2.6747,2.6756,2.6779,2.6885,2.689,2.6809,2.6813,2.6816,2.6817,0,0,0,0,0,0,0,2.649,2.6504,2.6642,2.6608,2.661,2.6607,2.6617,2.6687,2.6715,2.6657,2.6656,2.6667,2.6747,2.6773,2.6781,2.6891,2.6809,2.6814,2.6818,2.6821,2.7077,2.708,0,0,0,0,0,0,2.6482,2.6499,2.6639,2.6645,2.6545,2.6613,2.6623,2.6657,2.6714,2.672,2.6669,2.6666,2.6763,2.6774,2.6785,2.6895,2.6816,2.6822,2.6825,2.7074,2.7077,2.7081,0,0,0,0,0,0,2.6478,2.6495,2.6635,2.6572,2.6589,2.6619,2.6657,2.666,2.6686,2.6723,2.6728,2.669,2.6762,2.6776,2.6856,2.6899,2.6825,2.683,2.7071,2.7075,2.7079,2.7117,0,0,0,0,0,0,2.6473,2.6493,2.6527,2.6573,2.6593,2.6703,2.666,2.6664,2.6696,2.6693,2.6744,2.675,2.6761,2.6847,2.6863,2.6906,2.6836,2.7067,2.7073,2.7078,2.7112,2.7122,2.7131,0,0,0,0,0,2.6466,2.6536,2.6529,2.6546,2.6635,2.6706,2.6717,2.6727,2.67,2.6735,2.6759,2.6748,2.6892,2.6855,2.6873,2.6919,2.7064,2.7071,2.7077,2.7108,2.712,2.7131,0,0,0,0,0,0,2.6497,2.6542,2.6535,2.6621,2.6659,2.6702,2.6746,2.674,2.6788,2.6783,2.6795,2.6807,2.6888,2.6912,2.687,2.7011,2.6974,2.6985,2.6992,2.7004,2.7013,2.7005,2.6841,0,0,0,0,0,2.6513,2.6565,2.6602,2.6675,2.6694,2.6717,2.6748,2.6752,2.6793,2.681,2.6839,2.6881,2.6935,2.6971,2.7024,2.7116,2.7127,2.7157,2.7166,2.7174,2.7182,2.7232,2.7246,2.7102,2.7102,2.7102,0,0,2.6548,2.6579,2.6611,2.6681,2.6712,2.6766,2.6731,2.679,2.6831,2.6819,2.6896,2.6919,2.6967,2.7053,2.7093,2.7076,2.7224,2.7182,2.7188,2.7192,2.724,2.7254,2.7266,2.7106,2.7106,2.7105,0,0,2.6639,2.6668,2.6731,2.6762,2.6807,2.6822,2.6837,2.6881,2.6896,2.6973,2.6965,2.7015,2.7109,2.7142,2.7172,2.7276,2.7268,2.7293,2.7341,2.739,2.7401,2.7411,2.7447,2.746,2.7302,2.7302,2.7302,0,2.6677,2.6757,2.6765,2.6824,2.6855,2.6846,2.691,2.694,2.7002,2.7024,2.7004,2.712,2.7152,2.7246,2.7271,2.7296,2.7314,2.7286,2.7399,2.7409,2.7418,2.7453,2.7466,2.7305,2.7304,2.7304,2.7304,0,2.6801,2.6857,2.6903,2.6959,2.6996,2.7058,2.7076,2.7113,2.7114,2.7132,2.721,2.7248,2.7307,2.733,2.7333,2.7424,2.7412,2.7395,2.7359,2.7434,2.7467,2.748,2.7308,2.7307,2.7307,2.7306,0,0,2.6913,2.6973,2.6989,2.7015,2.7065,2.7108,2.7171,2.7226,2.7257,2.73,2.7353,2.7432,2.7416,2.745,2.7457,2.75,2.7578,2.7478,2.7479,2.7494,2.768,2.7691,2.7706,2.7574,2.7576,2.7578,2.7676,0,2.7007,2.7114,2.7123,2.722,2.7271,2.7263,2.7317,2.7354,2.7373,2.7421,2.7442,2.7497,2.7473,2.7493,2.7535,2.756,2.7616,2.7553,2.7623,2.7625,2.7609,2.7724,2.7735,2.7825,2.7689,2.7691,2.7693,0,2.7131,2.7175,2.7276,2.7318,2.734,2.7388,2.744,2.7485,2.7528,2.7539,2.7576,2.7577,2.7642,2.7604,2.7693,2.765,2.768,2.7697,2.77,2.7706,2.7662,2.7731,2.7855,2.7867,2.7713,2.7711,2.771,0,2.72,2.7286,2.7357,2.7379,2.743,2.7464,2.7487,2.7527,2.756,2.7606,2.7628,2.7682,2.7711,2.7754,2.777,2.7741,2.7859,2.7822,2.7869,2.7869,2.7893,2.7891,2.8022,2.7915,2.7915,2.7915,2.7915,0,2.7304,2.7365,2.7388,2.7432,2.7501,2.7512,2.7581,2.7603,2.7639,2.7687,2.7686,2.7731,2.775,2.78,2.7813,2.7885,2.7899,2.791,2.7912,2.7909,2.7907,2.7927,2.792,2.7918,2.7918,2.7917,2.7916,0,2.7392,2.741,2.7486,2.7528,2.754,2.7589,2.7626,2.7669,2.7687,2.7748,2.7764,2.7792,2.785,2.7871,2.7942,2.7951,2.8034,2.8032,2.8019,2.8019,2.8064,2.8059,2.821,2.823,2.8112,2.8114,2.8115,0,2.7455,2.7502,2.7549,2.758,2.7604,2.7655,2.7688,2.7702,2.7737,2.7789,2.7825,2.7882,2.7929,2.8022,2.805,2.8105,2.8103,2.8153,2.8112,2.8106,2.8102,2.8098,2.8103,2.816,2.8161,2.8162,2.8163,0,2.7566,2.7572,2.7619,2.7669,2.7708,2.7749,2.7788,2.7815,2.7834,2.7874,2.7932,2.7968,2.8039,2.8096,2.8152,2.8178,2.8174,2.8176,2.8189,2.8185,2.8175,2.8179,2.8038,2.8172,2.8171,2.8171,2.817,2.817,2.7642,2.7683,2.7722,2.7774,2.7805,2.7842,2.7883,2.7906,2.7954,2.8012,2.8018,2.8081,2.8123,2.8197,2.8225,2.8275,2.8262,2.8282,2.8286,2.8291,2.8293,2.8168,2.8286,2.8286,2.8286,2.8285,2.8285,0,2.7751,2.7775,2.7823,2.7877,2.7919,2.7911,2.7954,2.7989,2.8044,2.8083,2.8128,2.8195,2.825,2.8282,2.8338,2.8372,2.8371,2.8386,2.8382,2.8388,2.8303,2.8285,2.8385,2.8385,2.8385,2.8385,2.8385,2.8385,2.7812,2.788,2.7892,2.7976,2.8001,2.806,2.8086,2.812,2.815,2.8225,2.827,2.829,2.8327,2.8385,2.8435,2.8443,2.8463,2.8479,2.8486,2.8405,2.8394,2.8385,2.8367,2.8483,2.8484,2.8566,2.8567,2.8568]},{"header":{"parameterUnit":"m.s-1","parameterCategory":1,"la1":30.2991,"la2":30.254,"lo1":-89.0895,"lo2":-89.0444,"dy":0.0017,"dx":0.0017,"nx":28,"ny":28,"refTime":"2023-08-14T09:00:00:Z","depth":0,"parameterNumber":3,"parameterNumberName":"V-component_of_WINDS"},"data":[0,0,0,0,0,0,0,0,0,0,0,0,0,0,0,0,0,0,0,0,0,0,0,0,0,0,0,0,0,0,0,0,0,0,0,0,0,0,0,0,0,0,0,0,0,0,0,0,0,0,0,0,0,0,0,0,0,0,6.1436,6.1437,0,6.1588,6.159,6.1591,6.1584,6.1582,6.158,6.1578,6.1722,6.1727,6.1733,0,0,0,0,0,0,0,0,0,0,0,0,0,6.1124,6.113,6.1435,6.1437,6.1439,6.1588,6.159,6.1592,6.1585,6.1582,6.158,6.1577,6.172,6.1727,6.1734,0,0,0,0,0,0,0,0,0,0,0,0,0,6.1266,6.1131,6.1435,6.1454,6.1457,6.1587,6.159,6.1592,6.1585,6.1582,6.1579,6.1576,6.1718,6.1726,6.1735,6.1852,0,0,6.1761,6.1765,0,0,0,0,0,0,0,0,6.1258,6.1277,6.1449,6.1453,6.1457,6.1564,6.1533,6.1679,6.1586,6.1536,6.1578,6.1574,6.1671,6.1683,6.1719,6.1859,6.1865,6.1762,6.1767,6.1771,6.1773,0,0,0,0,0,0,0,6.1248,6.127,6.1495,6.1452,6.1456,6.145,6.1467,6.156,6.1619,6.154,6.154,6.1559,6.1672,6.171,6.1722,6.1867,6.1762,6.177,6.1775,6.1778,6.2105,6.2108,0,0,0,0,0,0,6.1236,6.1262,6.1491,6.15,6.1348,6.1458,6.1477,6.1533,6.1618,6.1629,6.1562,6.1558,6.1697,6.1712,6.1727,6.1866,6.1771,6.1779,6.1784,6.2102,6.2106,6.211,0,0,0,0,0,0,6.1229,6.1256,6.1484,6.1381,6.141,6.1467,6.153,6.1537,6.1575,6.1635,6.1644,6.159,6.1695,6.1715,6.1821,6.1871,6.1783,6.1791,6.2098,6.2103,6.2108,6.2148,0,0,0,0,0,0,6.122,6.1254,6.1303,6.1383,6.1416,6.158,6.1533,6.1543,6.1592,6.1589,6.1664,6.1673,6.1694,6.1808,6.1829,6.1882,6.1798,6.2093,6.21,6.2106,6.2143,6.2154,6.2164,0,0,0,0,0,6.1209,6.1307,6.1306,6.1333,6.1479,6.1583,6.1602,6.1627,6.1596,6.1643,6.168,6.1671,6.1863,6.1819,6.1843,6.1899,6.209,6.2098,6.2106,6.2138,6.2152,6.2164,0,0,0,0,0,0,6.1228,6.1318,6.1317,6.1445,6.1507,6.1582,6.1642,6.1642,6.1711,6.1705,6.173,6.1747,6.1852,6.1886,6.1835,6.2014,6.1972,6.1985,6.1988,6.2002,6.2012,6.2,6.1805,0,0,0,0,0,6.1247,6.133,6.1402,6.1506,6.1538,6.1585,6.1631,6.1646,6.1709,6.1735,6.178,6.1838,6.1911,6.1959,6.203,6.2148,6.2161,6.2198,6.2208,6.2217,6.2227,6.2287,6.2303,6.2135,6.2135,6.2135,0,0,6.1287,6.1346,6.1396,6.1512,6.1562,6.1641,6.1607,6.1693,6.175,6.1746,6.1849,6.1884,6.1951,6.2062,6.2114,6.2094,6.2276,6.2227,6.2233,6.2239,6.2297,6.2312,6.2326,6.214,6.2139,6.2139,0,0,6.14,6.1456,6.1547,6.1598,6.1675,6.1705,6.1727,6.1802,6.1826,6.1931,6.1928,6.1994,6.2121,6.2167,6.2207,6.2334,6.2326,6.2356,6.2412,6.247,6.2483,6.2495,6.2536,6.2551,6.2367,6.2367,6.2367,0,6.1438,6.1563,6.1593,6.168,6.1728,6.1732,6.1821,6.1867,6.1962,6.1992,6.197,6.2127,6.2172,6.2292,6.2323,6.2357,6.2378,6.2347,6.248,6.2492,6.2503,6.2542,6.2558,6.237,6.2369,6.2369,6.2369,0,6.1604,6.1689,6.1753,6.1848,6.1903,6.1991,6.2029,6.2081,6.209,6.212,6.2223,6.2278,6.2358,6.2388,6.2396,6.2508,6.2493,6.2475,6.2432,6.2521,6.2558,6.2574,6.2374,6.2373,6.2372,6.2371,0,0,6.1732,6.1842,6.1864,6.1906,6.199,6.2054,6.2139,6.2221,6.2262,6.2327,6.2395,6.2501,6.2484,6.2529,6.2543,6.2594,6.2686,6.257,6.2571,6.2586,6.2806,6.2817,6.2835,6.2682,6.2685,6.2688,6.2799,0,6.185,6.2007,6.2035,6.2169,6.2245,6.2248,6.2321,6.2377,6.2408,6.2472,6.2504,6.2577,6.2552,6.2579,6.2631,6.2664,6.273,6.2657,6.274,6.2743,6.2721,6.2855,6.2867,6.297,6.2815,6.2817,6.2819,0,6.201,6.2081,6.2223,6.2294,6.2327,6.2393,6.2468,6.2533,6.2594,6.2612,6.2662,6.2669,6.2751,6.2707,6.2818,6.2768,6.2803,6.2824,6.2829,6.2835,6.2785,6.2861,6.3004,6.3018,6.2843,6.2841,6.2839,0,6.2084,6.2215,6.2316,6.2352,6.2438,6.2484,6.2521,6.258,6.2626,6.269,6.2719,6.2791,6.2829,6.2882,6.2905,6.2872,6.3013,6.2972,6.3026,6.3025,6.3053,6.3051,6.3201,6.3082,6.3082,6.3081,6.3081,0,6.2211,6.2297,6.2351,6.2412,6.2507,6.2536,6.2627,6.2662,6.2714,6.2779,6.2785,6.2844,6.2874,6.2936,6.2955,6.3041,6.3059,6.3072,6.3075,6.307,6.3068,6.3091,6.3084,6.3085,6.3084,6.3084,6.3083,0,6.2309,6.2349,6.2459,6.2532,6.2552,6.2618,6.2678,6.2735,6.2765,6.2846,6.2867,6.2912,6.2985,6.3015,6.3104,6.3116,6.3215,6.3214,6.3195,6.3195,6.3246,6.3239,6.3414,6.3436,6.3305,6.3307,6.3308,0,6.2386,6.2452,6.2533,6.2579,6.2618,6.2692,6.2739,6.2769,6.2817,6.2892,6.2938,6.3013,6.3074,6.319,6.3227,6.3294,6.3293,6.335,6.3303,6.3294,6.3289,6.3284,6.3288,6.3357,6.3358,6.336,6.336,0,6.2517,6.2533,6.2604,6.2681,6.2739,6.28,6.2859,6.2894,6.2932,6.2985,6.3062,6.311,6.3202,6.3273,6.3342,6.3375,6.3372,6.3375,6.339,6.3384,6.3369,6.3374,6.3215,6.337,6.3369,6.3369,6.3368,6.3368,6.2604,6.2662,6.2727,6.2805,6.2853,6.2908,6.2964,6.3002,6.3068,6.3148,6.316,6.3241,6.3297,6.339,6.3425,6.3485,6.347,6.3493,6.3498,6.3503,6.3504,6.3362,6.3498,6.3498,6.3498,6.3497,6.3497,0,6.2732,6.2774,6.2846,6.2929,6.2989,6.2986,6.3051,6.3099,6.3172,6.3226,6.3287,6.3372,6.3441,6.3485,6.3553,6.3592,6.3592,6.3609,6.3604,6.3611,6.3516,6.3495,6.3607,6.3607,6.3607,6.3607,6.3607,6.3607,6.2805,6.2902,6.2925,6.3043,6.3084,6.3167,6.3203,6.3252,6.3295,6.3392,6.3451,6.348,6.3528,6.36,6.3661,6.3672,6.3694,6.3712,6.372,6.363,6.3618,6.3607,6.3587,6.3717,6.3717,6.381,6.381,6.3811]}]]